Simultaneous Nadir Overpasses (SNOs) Predictions

Prediction of SNOs between AQUA and NOAA-19 Satellite Orbit:

Table of predicted SNOs for the next 14.0 days since TLE Epoch: 8/10/2012
Index Date (AQUA) Time (AQUA) AQUA Lat,Lon Date (NOAA-19) Time (NOAA-19) NOAA-19 Lat,Lon Distance(km) Time Diff (sec)
1 08/11/2012 12:03:59 -46.05, 31.39 08/11/2012 12:03:54 -46.01, 31.53 11.72 5
2 08/11/2012 12:42:02 81.57, -91.43 08/11/2012 12:43:15 80.95, -90.49 70.51 73
3 08/13/2012 15:58:44 46.01, 152.68 08/13/2012 15:57:34 45.90, 153.08 32.82 70
4 08/13/2012 16:47:55 -47.12, -39.27 08/13/2012 16:48:13 -47.11, -39.18 6.94 18
5 08/15/2012 20:42:58 46.01, 81.62 08/15/2012 20:42:11 45.96, 81.95 25.85 47
6 08/15/2012 21:31:46 -48.48,-109.80 08/15/2012 21:32:27 -48.48,-109.75 3.17 41
7 08/18/2012 01:27:12 46.00, 10.56 08/18/2012 01:26:49 45.94, 10.79 19.05 23
8 08/18/2012 02:15:36 -49.90, 179.72 08/18/2012 02:16:40 -49.90, 179.72 0.33 64
9 08/20/2012 06:11:25 46.05, -60.48 08/20/2012 06:11:25 46.02, -60.33 12.30 0
10 08/20/2012 06:52:32 -74.71, 132.29 08/20/2012 06:53:45 -74.47, 133.78 51.25 73
11 08/22/2012 10:55:17 47.34,-131.06 08/22/2012 10:55:39 47.35,-130.94 8.72 22




NCC Satellite Simultaneous Nadir Overpasses (SNOs) Prediction Service
